Time,TemperatureF,DewpointF,PressureIn,WindDirection,WindDirectionDegrees,WindSpeedMPH,WindSpeedGustMPH,Humidity,HourlyPrecipIn,Conditions,Clouds,dailyrainin,SoftwareType,DateUTC
2013-10-04 08:44:00,35.4,21.7,30.38,NW,314,0.0,0.0,57,0.00,,---,0.00,VWS V14.01,2013-10-04 14:44:00,
2013-10-04 08:45:00,35.4,21.7,30.38,NW,314,0.0,0.0,57,0.00,,---,0.00,VWS V14.01,2013-10-04 14:45:00,
2013-10-04 08:50:00,36.7,22.9,30.38,NW,314,0.0,0.0,57,0.00,,---,0.00,VWS V14.01,2013-10-04 14:50:00,
2013-10-04 08:55:00,38.5,24.2,30.38,NW,314,0.0,0.0,56,0.00,,---,0.00,VWS V14.01,2013-10-04 14:55:00,
2013-10-04 09:00:00,39.9,25.1,30.38,NW,314,0.0,0.0,55,0.00,,---,0.00,VWS V14.01,2013-10-04 15:00:00,
2013-10-04 09:05:00,40.6,25.3,30.38,NW,314,0.0,0.0,54,0.00,,---,0.00,VWS V14.01,2013-10-04 15:05:00,
2013-10-04 09:10:00,41.5,26.1,30.38,NW,313,0.0,0.0,54,0.00,,---,0.00,VWS V14.01,2013-10-04 15:10:00,
2013-10-04 09:15:00,42.4,26.5,30.38,NW,314,0.0,0.0,53,0.00,,---,0.00,VWS V14.01,2013-10-04 15:15:00,
2013-10-04 09:17:00,42.8,25.5,30.38,NW,314,0.0,0.0,50,0.00,,---,0.00,VWS V14.01,2013-10-04 15:17:00,
2013-10-04 09:22:00,42.8,23.0,30.38,NW,314,0.0,0.0,45,0.00,,---,0.00,VWS V14.01,2013-10-04 15:22:00,
2013-10-04 09:27:00,43.2,22.2,30.38,East,87,0.0,4.0,43,0.00,,---,0.00,VWS V14.01,2013-10-04 15:27:00,
2013-10-04 09:32:00,43.3,22.4,30.38,ENE,69,2.7,4.0,43,0.00,,---,0.00,VWS V14.01,2013-10-04 15:32:00,
2013-10-04 09:37:00,43.5,22.5,30.38,East,94,2.2,4.0,43,0.00,,---,0.00,VWS V14.01,2013-10-04 15:37:00,
2013-10-04 09:42:00,43.9,22.3,30.38,ENE,67,2.7,4.5,42,0.00,,---,0.00,VWS V14.01,2013-10-04 15:42:00,
2013-10-04 09:47:00,44.6,21.8,30.38,SE,129,3.1,3.1,40,0.00,,---,0.00,VWS V14.01,2013-10-04 15:47:00,
2013-10-04 09:52:00,44.2,20.3,30.38,ENE,66,0.0,3.1,38,0.00,,---,0.00,VWS V14.01,2013-10-04 15:52:00,
2013-10-04 09:57:00,45.0,20.3,30.38,NNE,12,0.0,3.6,37,0.00,,---,0.00,VWS V14.01,2013-10-04 15:57:00,
2013-10-04 10:02:00,45.9,21.7,30.38,East,95,2.2,3.1,38,0.00,,---,0.00,VWS V14.01,2013-10-04 16:02:00,
2013-10-04 10:07:00,45.9,21.1,30.38,ENE,57,0.0,3.1,37,0.00,,---,0.00,VWS V14.01,2013-10-04 16:07:00,
2013-10-04 10:12:00,46.2,20.8,30.38,NE,54,2.7,3.1,36,0.00,,---,0.00,VWS V14.01,2013-10-04 16:12:00,
2013-10-04 10:17:00,45.9,19.1,30.38,North,7,0.0,3.1,34,0.00,,---,0.00,VWS V14.01,2013-10-04 16:17:00,
2013-10-04 10:22:00,45.1,18.5,30.38,North,357,0.0,3.1,34,0.00,,---,0.00,VWS V14.01,2013-10-04 16:22:00,
2013-10-04 10:27:00,44.6,18.0,30.38,NNE,16,0.0,3.1,34,0.00,,---,0.00,VWS V14.01,2013-10-04 16:27:00,
2013-10-04 10:32:00,44.6,18.0,30.38,NE,53,2.2,2.2,34,0.00,,---,0.00,VWS V14.01,2013-10-04 16:32:00,
2013-10-04 10:37:00,44.2,17.0,30.38,NE,38,0.0,2.7,33,0.00,,---,0.00,VWS V14.01,2013-10-04 16:37:00,
2013-10-04 10:42:00,44.6,17.3,30.38,NNE,31,0.0,2.7,33,0.00,,---,0.00,VWS V14.01,2013-10-04 16:42:00,
2013-10-04 10:47:00,44.6,17.3,30.38,North,353,0.0,0.0,33,0.00,,---,0.00,VWS V14.01,2013-10-04 16:47:00,
2013-10-04 10:52:00,45.1,17.8,30.38,North,353,0.0,0.0,33,0.00,,---,0.00,VWS V14.01,2013-10-04 16:52:00,
2013-10-04 10:57:00,46.2,19.4,30.38,NNE,19,0.0,0.0,34,0.00,,---,0.00,VWS V14.01,2013-10-04 16:57:00,
2013-10-04 11:02:00,46.4,17.4,30.38,North,353,0.0,0.0,31,0.00,,---,0.00,VWS V14.01,2013-10-04 17:02:00,
2013-10-04 11:07:00,46.6,17.6,30.38,North,0,0.0,0.0,31,0.00,,---,0.00,VWS V14.01,2013-10-04 17:07:00,
2013-10-04 11:12:00,47.5,18.4,30.38,North,10,0.0,0.0,31,0.00,,---,0.00,VWS V14.01,2013-10-04 17:12:00,
2013-10-04 11:17:00,47.8,17.9,30.38,North,353,0.0,2.2,30,0.00,,---,0.00,VWS V14.01,2013-10-04 17:17:00,
2013-10-04 11:22:00,48.2,19.0,30.38,NNE,26,0.0,2.2,31,0.00,,---,0.00,VWS V14.01,2013-10-04 17:22:00,
2013-10-04 11:27:00,49.3,19.2,30.38,SE,125,3.1,5.8,30,0.00,,---,0.00,VWS V14.01,2013-10-04 17:27:00,
2013-10-04 11:32:00,49.8,19.6,30.38,ESE,108,2.7,3.1,30,0.00,,---,0.00,VWS V14.01,2013-10-04 17:32:00,
2013-10-04 11:37:00,50.7,20.4,30.38,ESE,102,2.7,4.0,30,0.00,,---,0.00,VWS V14.01,2013-10-04 17:37:00,
2013-10-04 12:02:00,52.3,19.4,30.38,ENE,58,0.0,0.0,27,0.00,,---,0.00,VWS V14.01,2013-10-04 18:02:00,
2013-10-04 12:07:00,53.6,20.5,30.38,SW,233,0.0,0.0,27,0.00,,---,0.00,VWS V14.01,2013-10-04 18:07:00,
2013-10-04 12:12:00,54.3,20.2,30.38,ESE,104,0.0,0.0,26,0.00,,---,0.00,VWS V14.01,2013-10-04 18:12:00,
2013-10-04 12:17:00,54.0,19.9,30.38,East,95,2.2,4.0,26,0.00,,---,0.00,VWS V14.01,2013-10-04 18:17:00,
2013-10-04 12:22:00,54.0,19.9,30.35,SE,136,2.2,4.0,26,0.00,,---,0.00,VWS V14.01,2013-10-04 18:22:00,
2013-10-04 12:27:00,54.5,20.3,30.35,East,92,2.2,4.0,26,0.00,,---,0.00,VWS V14.01,2013-10-04 18:27:00,
2013-10-04 12:32:00,54.9,20.6,30.35,ENE,60,2.7,3.6,26,0.00,,---,0.00,VWS V14.01,2013-10-04 18:32:00,
2013-10-04 12:37:00,54.3,19.3,30.35,NNE,22,0.0,4.9,25,0.00,,---,0.00,VWS V14.01,2013-10-04 18:37:00,
2013-10-04 12:42:00,53.8,18.8,30.35,North,3,0.0,4.9,25,0.00,,---,0.00,VWS V14.01,2013-10-04 18:42:00,
2013-10-04 12:47:00,53.1,19.1,30.35,NE,42,2.2,2.2,26,0.00,,---,0.00,VWS V14.01,2013-10-04 18:47:00,
2013-10-04 12:52:00,53.6,18.6,30.35,NNE,24,0.0,4.0,25,0.00,,---,0.00,VWS V14.01,2013-10-04 18:52:00,
2013-10-04 12:57:00,54.7,19.6,30.35,ESE,106,3.6,4.9,25,0.00,,---,0.00,VWS V14.01,2013-10-04 18:57:00,
2013-10-04 13:02:00,55.2,20.0,30.35,ENE,78,2.2,3.1,25,0.00,,---,0.00,VWS V14.01,2013-10-04 19:02:00,
2013-10-04 13:07:00,55.9,17.7,30.32,West,264,0.0,5.4,22,0.00,,---,0.00,VWS V14.01,2013-10-04 19:07:00,
2013-10-04 13:12:00,56.7,21.3,30.32,South,169,3.6,5.4,25,0.00,,---,0.00,VWS V14.01,2013-10-04 19:12:00,
2013-10-04 13:17:00,56.3,18.0,30.32,North,357,0.0,3.1,22,0.00,,---,0.00,VWS V14.01,2013-10-04 19:17:00,
2013-10-04 13:22:00,56.1,17.8,30.35,NE,47,0.0,3.1,22,0.00,,---,0.00,VWS V14.01,2013-10-04 19:22:00,
2013-10-04 13:27:00,56.7,18.3,30.35,NE,38,0.0,3.1,22,0.00,,---,0.00,VWS V14.01,2013-10-04 19:27:00,
2013-10-04 13:32:00,56.5,18.1,30.35,ENE,73,2.2,4.0,22,0.00,,---,0.00,VWS V14.01,2013-10-04 19:32:00,
2013-10-04 13:37:00,57.0,18.6,30.35,ESE,103,3.6,4.9,22,0.00,,---,0.00,VWS V14.01,2013-10-04 19:37:00,
2013-10-04 13:42:00,56.8,18.4,30.35,SSE,159,2.7,4.9,22,0.00,,---,0.00,VWS V14.01,2013-10-04 19:42:00,
2013-10-04 13:47:00,56.7,16.1,30.35,East,94,3.6,4.0,20,0.00,,---,0.00,VWS V14.01,2013-10-04 19:47:00,
2013-10-04 13:52:00,57.0,16.4,30.35,NNE,14,2.7,4.0,20,0.00,,---,0.00,VWS V14.01,2013-10-04 19:52:00,
2013-10-04 13:57:00,57.2,15.3,30.35,ENE,77,4.0,4.0,19,0.00,,---,0.00,VWS V14.01,2013-10-04 19:57:00,
2013-10-04 14:02:00,57.6,15.6,30.35,ESE,114,0.0,3.6,19,0.00,,---,0.00,VWS V14.01,2013-10-04 20:02:00,
2013-10-04 14:07:00,57.9,15.9,30.35,NNE,32,3.1,3.6,19,0.00,,---,0.00,VWS V14.01,2013-10-04 20:07:00,
2013-10-04 14:12:00,57.4,15.5,30.35,NW,314,0.0,3.6,19,0.00,,---,0.00,VWS V14.01,2013-10-04 20:12:00,
2013-10-04 14:17:00,57.0,16.4,30.35,ESE,111,2.2,2.7,20,0.00,,---,0.00,VWS V14.01,2013-10-04 20:17:00,
2013-10-04 14:22:00,57.7,15.8,30.35,ENE,58,0.0,2.7,19,0.00,,---,0.00,VWS V14.01,2013-10-04 20:22:00,
2013-10-04 14:27:00,57.9,15.9,30.35,East,79,0.0,4.0,19,0.00,,---,0.00,VWS V14.01,2013-10-04 20:27:00,
2013-10-04 14:32:00,58.1,16.1,30.35,North,3,0.0,0.0,19,0.00,,---,0.00,VWS V14.01,2013-10-04 20:32:00,
2013-10-04 14:37:00,58.3,16.2,30.32,NNE,29,0.0,3.1,19,0.00,,---,0.00,VWS V14.01,2013-10-04 20:37:00,
2013-10-04 14:42:00,58.8,16.7,30.32,East,80,4.9,5.8,19,0.00,,---,0.00,VWS V14.01,2013-10-04 20:42:00,
2013-10-04 14:47:00,58.8,16.7,30.32,East,85,0.0,4.0,19,0.00,,---,0.00,VWS V14.01,2013-10-04 20:47:00,
2013-10-04 14:52:00,59.4,17.1,30.32,SE,141,2.7,4.0,19,0.00,,---,0.00,VWS V14.01,2013-10-04 20:52:00,
2013-10-04 14:57:00,59.7,17.4,30.32,East,90,2.7,4.0,19,0.00,,---,0.00,VWS V14.01,2013-10-04 20:57:00,
2013-10-04 15:02:00,59.9,17.6,30.32,ENE,73,3.1,4.0,19,0.00,,---,0.00,VWS V14.01,2013-10-04 21:02:00,
2013-10-04 15:07:00,60.3,17.9,30.32,East,87,3.1,5.4,19,0.00,,---,0.00,VWS V14.01,2013-10-04 21:07:00,
2013-10-04 15:12:00,59.9,17.6,30.32,East,83,3.6,5.4,19,0.00,,---,0.00,VWS V14.01,2013-10-04 21:12:00,
2013-10-04 15:17:00,59.7,17.4,30.32,East,80,3.1,4.0,19,0.00,,---,0.00,VWS V14.01,2013-10-04 21:17:00,
2013-10-04 15:22:00,59.7,17.4,30.32,North,350,2.2,4.0,19,0.00,,---,0.00,VWS V14.01,2013-10-04 21:22:00,
2013-10-04 15:27:00,59.2,17.0,30.32,NE,45,0.0,4.0,19,0.00,,---,0.00,VWS V14.01,2013-10-04 21:27:00,
2013-10-04 15:32:00,59.0,16.8,30.32,NE,42,0.0,2.7,19,0.00,,---,0.00,VWS V14.01,2013-10-04 21:32:00,
2013-10-04 15:37:00,59.5,17.3,30.32,ESE,115,0.0,4.0,19,0.00,,---,0.00,VWS V14.01,2013-10-04 21:37:00,
2013-10-04 15:42:00,59.7,17.4,30.32,NE,55,3.1,4.0,19,0.00,,---,0.00,VWS V14.01,2013-10-04 21:42:00,
2013-10-04 15:47:00,60.1,17.7,30.32,ENE,58,0.0,3.1,19,0.00,,---,0.00,VWS V14.01,2013-10-04 21:47:00,
2013-10-04 15:52:00,60.1,17.7,30.32,SSE,150,0.0,4.0,19,0.00,,---,0.00,VWS V14.01,2013-10-04 21:52:00,
2013-10-04 15:57:00,60.1,17.7,30.32,SE,139,2.7,4.9,19,0.00,,---,0.00,VWS V14.01,2013-10-04 21:57:00,
2013-10-04 16:02:00,60.4,18.0,30.32,SE,140,2.7,3.1,19,0.00,,---,0.00,VWS V14.01,2013-10-04 22:02:00,
2013-10-04 16:07:00,60.8,18.3,30.32,SE,139,0.0,3.1,19,0.00,,---,0.00,VWS V14.01,2013-10-04 22:07:00,
2013-10-04 16:12:00,59.5,17.3,30.32,NNE,20,0.0,3.1,19,0.00,,---,0.00,VWS V14.01,2013-10-04 22:12:00,
2013-10-04 16:17:00,57.6,15.6,30.32,North,8,0.0,0.0,19,0.00,,---,0.00,VWS V14.01,2013-10-04 22:17:00,
2013-10-04 16:22:00,57.6,15.6,30.32,SE,138,4.0,4.0,19,0.00,,---,0.00,VWS V14.01,2013-10-04 22:22:00,
2013-10-04 16:27:00,58.1,16.1,30.32,NE,53,0.0,4.0,19,0.00,,---,0.00,VWS V14.01,2013-10-04 22:27:00,
2013-10-04 16:32:00,58.3,16.2,30.32,ENE,65,3.1,4.0,19,0.00,,---,0.00,VWS V14.01,2013-10-04 22:32:00,
2013-10-04 16:37:00,58.5,16.4,30.32,ENE,78,2.7,4.0,19,0.00,,---,0.00,VWS V14.01,2013-10-04 22:37:00,
2013-10-04 16:42:00,58.5,16.4,30.32,North,6,0.0,4.0,19,0.00,,---,0.00,VWS V14.01,2013-10-04 22:42:00,
2013-10-04 16:47:00,57.4,15.5,30.32,NE,46,0.0,2.7,19,0.00,,---,0.00,VWS V14.01,2013-10-04 22:47:00,
2013-10-04 16:52:00,56.5,15.9,30.32,West,259,0.0,2.7,20,0.00,,---,0.00,VWS V14.01,2013-10-04 22:52:00,
2013-10-04 16:57:00,57.2,15.3,30.32,ENE,74,0.0,4.9,19,0.00,,---,0.00,VWS V14.01,2013-10-04 22:57:00,
2013-10-04 17:02:00,57.2,15.3,30.32,ENE,74,0.0,0.0,19,0.00,,---,0.00,VWS V14.01,2013-10-04 23:02:00,
2013-10-04 17:07:00,57.7,15.8,30.32,ENE,74,0.0,0.0,19,0.00,,---,0.00,VWS V14.01,2013-10-04 23:07:00,
2013-10-04 17:12:00,57.9,15.9,30.32,ESE,105,2.2,3.6,19,0.00,,---,0.00,VWS V14.01,2013-10-04 23:12:00,
2013-10-04 17:17:00,57.7,15.8,30.32,SSW,197,2.7,4.0,19,0.00,,---,0.00,VWS V14.01,2013-10-04 23:17:00,
2013-10-04 17:22:00,57.2,15.3,30.32,South,175,4.0,4.0,19,0.00,,---,0.00,VWS V14.01,2013-10-04 23:22:00,
2013-10-04 17:26:00,56.5,15.9,30.32,SSE,164,2.7,4.0,20,0.00,,---,0.00,VWS V14.01,2013-10-04 23:26:00,
2013-10-04 17:31:00,56.1,15.6,30.32,SSE,148,2.2,2.7,20,0.00,,---,0.00,VWS V14.01,2013-10-04 23:31:00,
2013-10-04 17:36:00,55.9,15.5,30.29,SSE,148,0.0,2.7,20,0.00,,---,0.00,VWS V14.01,2013-10-04 23:36:00,
2013-10-04 17:41:00,56.1,15.6,30.29,South,175,0.0,2.7,20,0.00,,---,0.00,VWS V14.01,2013-10-04 23:41:00,
2013-10-04 17:46:00,56.1,15.6,30.29,South,175,0.0,0.0,20,0.00,,---,0.00,VWS V14.01,2013-10-04 23:46:00,
2013-10-04 17:51:00,55.8,15.3,30.29,SSE,161,0.0,0.0,20,0.00,,---,0.00,VWS V14.01,2013-10-04 23:51:00,
2013-10-04 17:56:00,54.9,14.6,30.29,SE,138,0.0,0.0,20,0.00,,---,0.00,VWS V14.01,2013-10-04 23:56:00,
2013-10-04 18:01:00,54.3,14.1,30.29,SE,138,0.0,0.0,20,0.00,,---,0.00,VWS V14.01,2013-10-05 00:01:00,
2013-10-04 18:06:00,52.5,13.7,30.29,SW,227,0.0,4.9,21,0.00,,---,0.00,VWS V14.01,2013-10-05 00:06:00,
2013-10-04 18:11:00,50.9,12.4,30.29,WSW,257,3.1,4.9,21,0.00,,---,0.00,VWS V14.01,2013-10-05 00:11:00,
2013-10-04 18:16:00,49.5,11.2,30.29,West,273,0.0,0.0,21,0.00,,---,0.00,VWS V14.01,2013-10-05 00:16:00,
2013-10-04 18:21:00,48.4,10.3,30.29,West,273,0.0,0.0,21,0.00,,---,0.00,VWS V14.01,2013-10-05 00:21:00,
2013-10-04 18:26:00,47.5,12.5,30.29,West,265,0.0,0.0,24,0.00,,---,0.00,VWS V14.01,2013-10-05 00:26:00,
2013-10-04 18:31:00,46.6,14.4,30.29,West,265,0.0,0.0,27,0.00,,---,0.00,VWS V14.01,2013-10-05 00:31:00,
2013-10-04 18:36:00,45.9,14.6,30.29,West,260,0.0,3.1,28,0.00,,---,0.00,VWS V14.01,2013-10-05 00:36:00,
2013-10-04 18:41:00,45.3,14.1,30.29,West,265,2.7,3.6,28,0.00,,---,0.00,VWS V14.01,2013-10-05 00:41:00,
2013-10-04 18:46:00,44.8,13.7,30.29,West,262,0.0,0.0,28,0.00,,---,0.00,VWS V14.01,2013-10-05 00:46:00,
2013-10-04 18:51:00,44.2,14.0,30.29,West,268,0.0,2.2,29,0.00,,---,0.00,VWS V14.01,2013-10-05 00:51:00,
2013-10-04 18:56:00,43.9,14.5,30.29,West,273,2.2,3.1,30,0.00,,---,0.00,VWS V14.01,2013-10-05 00:56:00,
2013-10-04 19:01:00,43.5,14.2,30.29,West,273,0.0,0.0,30,0.00,,---,0.00,VWS V14.01,2013-10-05 01:01:00,
2013-10-04 19:06:00,43.3,14.0,30.29,WNW,283,0.0,3.1,30,0.00,,---,0.00,VWS V14.01,2013-10-05 01:06:00,
2013-10-04 19:11:00,43.0,13.7,30.29,WNW,283,0.0,3.1,30,0.00,,---,0.00,VWS V14.01,2013-10-05 01:11:00,
2013-10-04 19:16:00,42.4,14.0,30.29,WNW,283,0.0,0.0,31,0.00,,---,0.00,VWS V14.01,2013-10-05 01:16:00,
2013-10-04 19:21:00,41.7,13.3,30.29,SSW,203,0.0,0.0,31,0.00,,---,0.00,VWS V14.01,2013-10-05 01:21:00,
2013-10-04 19:26:00,41.0,12.7,30.29,SSW,196,0.0,0.0,31,0.00,,---,0.00,VWS V14.01,2013-10-05 01:26:00,
2013-10-04 19:31:00,40.3,12.8,30.29,WSW,242,0.0,0.0,32,0.00,,---,0.00,VWS V14.01,2013-10-05 01:31:00,
2013-10-04 19:36:00,39.7,13.0,30.29,SW,221,0.0,3.6,33,0.00,,---,0.00,VWS V14.01,2013-10-05 01:36:00,
2013-10-04 19:41:00,39.4,14.0,30.29,SSE,167,0.0,3.6,35,0.00,,---,0.00,VWS V14.01,2013-10-05 01:41:00,
2013-10-04 19:46:00,38.8,13.5,30.29,SSE,168,0.0,0.0,35,0.00,,---,0.00,VWS V14.01,2013-10-05 01:46:00,
2013-10-04 19:51:00,38.3,14.9,30.29,South,177,0.0,0.0,38,0.00,,---,0.00,VWS V14.01,2013-10-05 01:51:00,
2013-10-04 19:56:00,37.8,15.0,30.29,South,185,2.7,4.0,39,0.00,,---,0.00,VWS V14.01,2013-10-05 01:56:00,
2013-10-04 20:01:00,37.6,15.5,30.29,South,186,3.1,3.1,40,0.00,,---,0.00,VWS V14.01,2013-10-05 02:01:00,
2013-10-04 20:06:00,37.0,15.5,30.29,South,186,0.0,3.1,41,0.00,,---,0.00,VWS V14.01,2013-10-05 02:06:00,
2013-10-04 20:11:00,36.9,15.4,30.29,South,191,0.0,3.1,41,0.00,,---,0.00,VWS V14.01,2013-10-05 02:11:00,
2013-10-04 20:16:00,36.3,14.9,30.29,South,191,0.0,0.0,41,0.00,,---,0.00,VWS V14.01,2013-10-05 02:16:00,
2013-10-04 20:21:00,36.1,14.7,30.32,SSW,192,0.0,0.0,41,0.00,,---,0.00,VWS V14.01,2013-10-05 02:21:00,
2013-10-04 20:26:00,35.8,14.9,30.32,SSW,192,0.0,0.0,42,0.00,,---,0.00,VWS V14.01,2013-10-05 02:26:00,
2013-10-04 20:31:00,35.6,14.8,30.32,SSW,192,0.0,0.0,42,0.00,,---,0.00,VWS V14.01,2013-10-05 02:31:00,
2013-10-04 20:36:00,35.4,14.6,30.29,SSW,192,0.0,0.0,42,0.00,,---,0.00,VWS V14.01,2013-10-05 02:36:00,
2013-10-04 20:41:00,35.1,14.3,30.29,SSW,192,0.0,0.0,42,0.00,,---,0.00,VWS V14.01,2013-10-05 02:41:00,
2013-10-04 20:46:00,35.1,14.3,30.29,SSW,192,0.0,0.0,42,0.00,,---,0.00,VWS V14.01,2013-10-05 02:46:00,
2013-10-04 20:51:00,34.9,14.1,30.32,SSW,192,0.0,0.0,42,0.00,,---,0.00,VWS V14.01,2013-10-05 02:51:00,
2013-10-04 20:56:00,34.9,14.7,30.32,South,178,2.2,3.1,43,0.00,,---,0.00,VWS V14.01,2013-10-05 02:56:00,
2013-10-04 21:01:00,34.7,15.0,30.32,South,178,0.0,0.0,44,0.00,,---,0.00,VWS V14.01,2013-10-05 03:01:00,
2013-10-04 21:06:00,34.7,15.0,30.32,South,190,0.0,0.0,44,0.00,,---,0.00,VWS V14.01,2013-10-05 03:06:00,
2013-10-04 21:11:00,34.3,15.2,30.32,South,190,0.0,0.0,45,0.00,,---,0.00,VWS V14.01,2013-10-05 03:11:00,
2013-10-04 21:16:00,34.3,14.7,30.32,South,190,0.0,0.0,44,0.00,,---,0.00,VWS V14.01,2013-10-05 03:16:00,
2013-10-04 21:21:00,34.2,14.5,30.32,South,190,0.0,0.0,44,0.00,,---,0.00,VWS V14.01,2013-10-05 03:21:00,
2013-10-04 21:26:00,34.0,14.4,30.32,South,190,0.0,0.0,44,0.00,,---,0.00,VWS V14.01,2013-10-05 03:26:00,
2013-10-04 21:31:00,34.0,14.4,30.32,South,190,0.0,0.0,44,0.00,,---,0.00,VWS V14.01,2013-10-05 03:31:00,
2013-10-04 21:36:00,33.6,14.6,30.29,South,190,0.0,0.0,45,0.00,,---,0.00,VWS V14.01,2013-10-05 03:36:00,
2013-10-04 21:41:00,33.6,14.6,30.29,SSW,196,0.0,0.0,45,0.00,,---,0.00,VWS V14.01,2013-10-05 03:41:00,
2013-10-04 21:46:00,33.6,14.6,30.29,SSW,196,0.0,0.0,45,0.00,,---,0.00,VWS V14.01,2013-10-05 03:46:00,
2013-10-04 21:51:00,33.4,15.4,30.32,SSW,196,0.0,0.0,47,0.00,,---,0.00,VWS V14.01,2013-10-05 03:51:00,
2013-10-04 21:56:00,33.3,14.7,30.32,South,190,0.0,0.0,46,0.00,,---,0.00,VWS V14.01,2013-10-05 03:56:00,
2013-10-04 22:01:00,33.1,15.1,30.32,South,190,0.0,0.0,47,0.00,,---,0.00,VWS V14.01,2013-10-05 04:01:00,
2013-10-04 22:06:00,33.3,15.2,30.32,South,190,0.0,0.0,47,0.00,,---,0.00,VWS V14.01,2013-10-05 04:06:00,
2013-10-04 22:11:00,33.1,15.1,30.32,South,190,0.0,0.0,47,0.00,,---,0.00,VWS V14.01,2013-10-05 04:11:00,
2013-10-04 22:16:00,32.7,15.2,30.32,South,190,0.0,0.0,48,0.00,,---,0.00,VWS V14.01,2013-10-05 04:16:00,
2013-10-04 22:21:00,32.5,16.0,30.32,SSW,203,0.0,0.0,50,0.00,,---,0.00,VWS V14.01,2013-10-05 04:21:00,
2013-10-04 22:26:00,32.4,15.8,30.32,SSE,155,0.0,0.0,50,0.00,,---,0.00,VWS V14.01,2013-10-05 04:26:00,
2013-10-04 22:31:00,32.2,15.6,30.32,SW,223,0.0,0.0,50,0.00,,---,0.00,VWS V14.01,2013-10-05 04:31:00,
2013-10-04 22:36:00,32.7,16.6,30.32,SW,223,0.0,0.0,51,0.00,,---,0.00,VWS V14.01,2013-10-05 04:36:00,
2013-10-04 22:41:00,32.5,16.4,30.32,SW,223,0.0,0.0,51,0.00,,---,0.00,VWS V14.01,2013-10-05 04:41:00,
2013-10-04 22:46:00,32.2,16.1,30.32,SW,223,0.0,0.0,51,0.00,,---,0.00,VWS V14.01,2013-10-05 04:46:00,
2013-10-04 22:51:00,31.8,15.8,30.32,SW,223,0.0,0.0,51,0.00,,---,0.00,VWS V14.01,2013-10-05 04:51:00,
2013-10-04 22:56:00,31.1,14.6,30.32,SW,223,0.0,0.0,50,0.00,,---,0.00,VWS V14.01,2013-10-05 04:56:00,
2013-10-04 23:01:00,31.1,14.6,30.32,SW,223,0.0,0.0,50,0.00,,---,0.00,VWS V14.01,2013-10-05 05:01:00,
2013-10-04 23:06:00,31.1,15.1,30.32,SW,223,2.7,2.7,51,0.00,,---,0.00,VWS V14.01,2013-10-05 05:06:00,
2013-10-04 23:11:00,30.9,14.9,30.32,WSW,249,0.0,2.7,51,0.00,,---,0.00,VWS V14.01,2013-10-05 05:11:00,
2013-10-04 23:16:00,30.9,14.9,30.32,WSW,250,0.0,0.0,51,0.00,,---,0.00,VWS V14.01,2013-10-05 05:16:00,
2013-10-04 23:21:00,30.9,14.9,30.32,WSW,249,0.0,0.0,51,0.00,,---,0.00,VWS V14.01,2013-10-05 05:21:00,
2013-10-04 23:26:00,30.9,15.4,30.32,WSW,249,0.0,0.0,52,0.00,,---,0.00,VWS V14.01,2013-10-05 05:26:00,
2013-10-04 23:31:00,30.6,15.0,30.32,WSW,250,0.0,0.0,52,0.00,,---,0.00,VWS V14.01,2013-10-05 05:31:00,
2013-10-04 23:36:00,30.6,15.0,30.32,WSW,249,0.0,0.0,52,0.00,,---,0.00,VWS V14.01,2013-10-05 05:36:00,
2013-10-04 23:41:00,30.4,14.9,30.32,WSW,250,0.0,0.0,52,0.00,,---,0.00,VWS V14.01,2013-10-05 05:41:00,
2013-10-04 23:46:00,30.4,15.3,30.32,West,270,2.2,3.1,53,0.00,,---,0.00,VWS V14.01,2013-10-05 05:46:00,
2013-10-04 23:51:00,30.4,15.7,30.32,West,271,0.0,3.1,54,0.00,,---,0.00,VWS V14.01,2013-10-05 05:51:00,
2013-10-04 23:56:00,30.7,16.1,30.32,West,271,0.0,3.1,54,0.00,,---,0.00,VWS V14.01,2013-10-05 05:56:00,